Weather History for Jacksonville, FL

Change the Weather History Date:

Tuesday, June 17, 2014

  Actual Average Record
Temperature  
Mean Temperature 79 °F 80 °F  
Max Temperature 88 °F 90 °F 100 °F (1944)
Min Temperature 69 °F 70 °F 61 °F (1961)
Degree Days  
Heating Degree Days 0 0  
Month to date heating degree days 0 0  
Since 1 June heating degree days 0 0  
Since 1 July heating degree days 1309 1349  
Cooling Degree Days 14 15  
Month to date cooling degree days 230 240  
Year to date cooling degree days 714 724  
Since 1 June cooling degree days 230 240  
Growing Degree Days 28 (Base 50)    
Moisture  
Dew Point 72 °F    
Average Humidity 81    
Maximum Humidity 100    
Minimum Humidity 61    
Precipitation  
Precipitation 0.00 in 0.24 in 2.49 in (1965)
Month to date precipitation 3.36 3.40  
Year to date precipitation 29.19 18.96  
Snow  
Snow 0.00 in 0.00 in 0.00 in (2002)
Month to date snowfall 0.0 0.0  
Since 1 June snowfall 0.0 0.0  
Since 1 July snowfall 0.0 T  
Snow Depth 0.00 in    
Sea Level Pressure  
Sea Level Pressure 30.14 in    
Wind  
Wind Speed 4 mph (ENE)    
Max Wind Speed 15 mph    
Max Gust Speed 20 mph    
Visibility 7 miles    
Events Fog    
T = Trace of Precipitation, MM = Missing Value Source: NWS Daily Summary

Daily Weather History Graph

Daily Weather History Graph

Search for Another Location

Airport:

Trip Planner

Search our weather history database for the weather conditions in past years. The results will help you decide how hot, cold, wet, or windy it might be!

Date:

Astronomy

Jun. 17, 2014 Rise Set
Actual Time 6:24 AM EDT 8:31 PM EDT
Civil Twilight 5:56 AM EDT 8:58 PM EDT
Nautical Twilight 5:22 AM EDT 9:32 PM EDT
Astronomical Twilight 4:46 AM EDT 10:08 PM EDT
Moon No Moon Rise 11:18 AM EDT (6/17)
Length of Visible Light 15h 02m
Length of Day
14h 06m
Waning Gibbous, 73% of the Moon is Illuminated
Jun 17
Waning Gibbous
Jun 19
Last Quarter
Jun 27
New
Jul 5
First Quarter
Jul 12
Full

Hourly Weather History & Observations

Time (EDT) Temp. Heat Index Dew Point Humidity Pressure Visibility Wind Dir Wind Speed Gust Speed Precip Events Conditions
12:56 AM 73.9 °F - 73.0 °F 97% 30.14 in 10.0 mi NE 3.5 mph - N/A   Clear
1:56 AM 73.0 °F - 72.0 °F 96% 30.13 in 9.0 mi Calm Calm - N/A   Clear
2:56 AM 72.0 °F - 71.1 °F 97% 30.13 in 8.0 mi Calm Calm - N/A   Clear
3:24 AM 70.0 °F - 70.0 °F 100% 30.12 in 7.0 mi Calm Calm - N/A   Scattered Clouds
3:30 AM 71.1 °F - 70.0 °F 96% 30.11 in 7.0 mi Calm Calm - N/A   Mostly Cloudy
3:56 AM 71.1 °F - 71.1 °F 100% 30.12 in 3.0 mi Calm Calm - N/A   Overcast
4:05 AM 71.1 °F - 71.1 °F 100% 30.11 in 0.5 mi NE 3.5 mph - N/A Fog Fog
4:47 AM 69.1 °F - 69.1 °F 100% 30.11 in 1.0 mi Calm Calm - N/A   Mist
4:56 AM 70.0 °F - 70.0 °F 100% 30.12 in 1.0 mi Calm Calm - N/A   Mist
5:43 AM 70.0 °F - 70.0 °F 100% 30.13 in 0.5 mi West 3.5 mph - N/A Fog Fog
5:56 AM 70.0 °F - 70.0 °F 100% 30.14 in 0.5 mi Calm Calm - N/A Fog Fog
6:18 AM 70.0 °F - 70.0 °F 100% 30.14 in 0.2 mi Calm Calm - N/A Fog Fog
6:56 AM 70.0 °F - 70.0 °F 100% 30.16 in 0.2 mi Calm Calm - N/A Fog Fog
7:56 AM 72.0 °F - 72.0 °F 100% 30.18 in 0.1 mi Calm Calm - N/A Fog Fog
8:37 AM 73.0 °F - 73.0 °F 100% 30.19 in 1.0 mi Calm Calm - N/A   Mostly Cloudy
8:56 AM 73.9 °F - 73.9 °F 100% 30.19 in 2.5 mi Calm Calm - N/A   Mostly Cloudy
9:02 AM 75.0 °F - 75.0 °F 100% 30.19 in 7.0 mi Calm Calm - N/A   Mostly Cloudy
9:56 AM 81.0 °F 86.2 °F 73.9 °F 79% 30.18 in 10.0 mi Calm Calm - N/A   Mostly Cloudy
10:56 AM 82.9 °F 88.0 °F 72.0 °F 69% 30.18 in 10.0 mi Calm Calm - N/A   Mostly Cloudy
11:56 AM 84.9 °F 90.7 °F 72.0 °F 65% 30.17 in 10.0 mi Variable 3.5 mph - N/A   Mostly Cloudy
12:56 PM 86.0 °F 91.5 °F 71.1 °F 61% 30.16 in 10.0 mi NE 6.9 mph - N/A   Mostly Cloudy
1:56 PM 87.1 °F 94.5 °F 73.0 °F 63% 30.15 in 10.0 mi East 9.2 mph - N/A   Mostly Cloudy
2:56 PM 86.0 °F 91.5 °F 71.1 °F 61% 30.13 in 10.0 mi ENE 12.7 mph 17.3 mph N/A   Scattered Clouds
3:56 PM 86.0 °F 92.2 °F 72.0 °F 63% 30.13 in 10.0 mi East 10.4 mph - N/A   Scattered Clouds
4:56 PM 84.9 °F 90.7 °F 72.0 °F 65% 30.12 in 10.0 mi ENE 15.0 mph - N/A   Scattered Clouds
5:56 PM 84.9 °F 89.4 °F 70.0 °F 61% 30.12 in 10.0 mi East 11.5 mph - N/A   Partly Cloudy
6:56 PM 82.9 °F 87.0 °F 70.0 °F 65% 30.11 in 10.0 mi East 11.5 mph - N/A   Partly Cloudy
7:56 PM 81.0 °F 84.9 °F 71.1 °F 72% 30.11 in 10.0 mi East 5.8 mph - N/A   Partly Cloudy
8:56 PM 77.0 °F - 72.0 °F 84% 30.11 in 10.0 mi East 6.9 mph - N/A   Partly Cloudy
9:56 PM 75.9 °F - 72.0 °F 87% 30.13 in 10.0 mi NE 4.6 mph - N/A   Partly Cloudy
10:56 PM 73.9 °F - 72.0 °F 93% 30.15 in 10.0 mi Calm Calm - N/A   Partly Cloudy
11:56 PM 73.0 °F - 71.1 °F 93% 30.15 in 10.0 mi NE 3.5 mph - N/A   Partly Cloudy